Tracking 29892 objects as of 21-Nov-2024
HD Live streaming from Space Station
objects crossing your sky now

NOAA 16 DEB

Track NOAA 16 DEB now!
10-day predictions


NORAD ID: 41164
Int'l Code: 2000-055CX
Perigee: 810.0 km
Apogee: 903.4 km
Inclination: 99.0 °
Period: 101.9 minutes
Semi major axis: 7227 km
RCS: Unknown
Launch date: September 21, 2000
Source: United States (US)
Launch site: AIR FORCE WESTERN TEST RANGE (AFWTR)

Note: This is SATELLITE DEBRIS
Your satellite tracking list
Your tracking list is empty




NASA's NSSDC Master Catalog

Two Line Element Set (TLE):
1 41164U 00055CX  24323.41987255  .00006890  00000-0  36520-2 0  9992
2 41164  98.9807  29.6826 0064615 226.8090 132.7672 14.12868513458498
Source of the keplerian elements: AFSPC